Location: Cactus School
(34.5700°N, 118.0931°W)
Time: 03:31:26
(UTC-07:00)

Courier 1B - Pass Details

Date: 21 April 2024
Orbit: 962 x 1208 km, 28.3° (Epoch: 23 May)

Event Time Altitude Azimuth Distance (km) Brightness Sun altitude
Exits shadow 03:48:53 52° 181° (S) 1,322 7.9 -27.1°
Maximum altitude 03:49:02 52° 177° (S) 1,320 7.9 -27.1°
Drops below altitude 10° 03:55:42 10° 103° (ESE) 2,825 10.4 -26.0°
Sets 03:58:23 0° 98° (E) 3,744 11.2 -25.6°
